Moab, UT

6:29 AM MDT on October 16, 2019 (GMT -0600)
Canyonlands

Weather History for KCNY - August, 2019

Change the Weather History Date:

Friday, August 2, 2019

  Actual Average Record
Temperature  
Mean Temperature 85 °F 80 °F  
Max Temperature 99 °F 95 °F 107 °F (1992)
Min Temperature 71 °F 65 °F 51 °F (1932)
Degree Days  
Heating Degree Days 0 0  
Month to date heating degree days 0 0  
Since 1 June heating degree days 23 17  
Since 1 July heating degree days 0 0  
Cooling Degree Days 20 15  
Month to date cooling degree days 34 30  
Year to date cooling degree days 807 823  
Since 1 June cooling degree days 792 759  
Growing Degree Days 35 (Base 50)    
Moisture  
Dew Point 47 °F    
Average Humidity 35    
Maximum Humidity 57    
Minimum Humidity 12    
Precipitation  
Precipitation 0.00 in 0.03 in 0.75 in (1930)
Month to date precipitation 0.00 0.05  
Year to date precipitation 6.15 4.59  
Sea Level Pressure  
Sea Level Pressure 29.92 in    
Wind  
Wind Speed 5 mph (ESE)    
Max Wind Speed 14 mph    
Max Gust Speed 19 mph    
Visibility 10 miles    
Events      
T = Trace of Precipitation, MM = Missing Value Source: NWS Daily Summary

Daily Weather History Graph

Daily Weather History Graph

Search for Another Location

Airport or City:

Astronomy

Aug. 02, 2019 Rise Set
Actual Time 6:21 AM MDT 8:28 PM MDT
Civil Twilight 5:51 AM MDT 8:58 PM MDT
Nautical Twilight 5:15 AM MDT 9:34 PM MDT
Astronomical Twilight 4:35 AM MDT 10:13 PM MDT
Moon 8:03 AM MDT (8/2) 10:00 PM MDT (8/2)
Length of Visible Light 15h 06m
Length of Day
14h 07m
Waxing Crescent, 4% of the Moon is Illuminated
Aug 2
Waxing Crescent
Aug 7
First Quarter
Aug 15
Full
Aug 23
Last Quarter
Aug 30
New

Hourly Weather History & Observations

Time (MDT) Temp. Heat Index Dew Point Humidity Pressure Visibility Wind Dir Wind Speed Gust Speed Precip Events Conditions
12:53 AM 77.0 °F - 48.0 °F 36% 29.93 in 10.0 mi NE 8.1 mph - N/A   Clear
1:53 AM 75.9 °F - 50.0 °F 40% 29.94 in 10.0 mi Calm Calm - N/A   Clear
2:53 AM 73.0 °F - 52.0 °F 48% 29.93 in 10.0 mi SSE 5.8 mph - N/A   Clear
3:53 AM 73.0 °F - 55.0 °F 53% 29.94 in 10.0 mi SE 5.8 mph - N/A   Clear
4:53 AM 73.9 °F - 55.9 °F 53% 29.94 in 10.0 mi East 8.1 mph - N/A   Clear
5:53 AM 73.0 °F - 55.9 °F 55% 29.95 in 10.0 mi SE 8.1 mph - N/A   Clear
6:53 AM 72.0 °F - 55.9 °F 57% 29.97 in 10.0 mi SE 6.9 mph - N/A   Clear
7:53 AM 75.9 °F - 55.9 °F 50% 29.98 in 10.0 mi SE 8.1 mph - N/A   Clear
8:53 AM 80.1 °F 80.1 °F 55.0 °F 42% 29.99 in 10.0 mi East 11.5 mph - N/A   Clear
9:53 AM 82.9 °F 82.0 °F 55.0 °F 38% 29.99 in 10.0 mi East 9.2 mph - N/A   Clear
10:53 AM 86.0 °F 84.2 °F 54.0 °F 33% 29.99 in 10.0 mi Variable 5.8 mph - N/A   Clear
11:53 AM 90.0 °F 87.5 °F 53.1 °F 28% 29.98 in 10.0 mi North - - N/A   Clear
12:53 PM 91.9 °F - 50.0 °F 24% 29.95 in 10.0 mi Variable 3.5 mph - N/A   Clear
1:53 PM 95.0 °F - 46.0 °F 19% 29.93 in 10.0 mi Variable 4.6 mph - N/A   Clear
2:53 PM 96.1 °F - 42.1 °F 15% 29.91 in 10.0 mi Variable 4.6 mph 16.1 mph N/A   Clear
3:53 PM 96.1 °F - 36.0 °F 12% 29.88 in 10.0 mi Calm Calm - N/A   Clear
4:53 PM 98.1 °F - 41.0 °F 14% 29.85 in 10.0 mi Variable 4.6 mph - N/A   Clear
5:53 PM 95.0 °F - 41.0 °F 15% 29.85 in 10.0 mi Variable 5.8 mph - N/A   Clear
6:53 PM 96.1 °F - 41.0 °F 15% 29.83 in 10.0 mi NE 9.2 mph 17.3 mph N/A   Clear
7:53 PM 93.0 °F - 41.0 °F 16% 29.83 in 10.0 mi Variable 5.8 mph - N/A   Clear
8:53 PM 90.0 °F - 39.9 °F 17% 29.84 in 10.0 mi Calm Calm - N/A   Clear
9:53 PM 82.0 °F - 37.9 °F 21% 29.87 in 10.0 mi WSW 5.8 mph - N/A   Clear
10:53 PM 82.0 °F - 37.9 °F 21% 29.88 in 10.0 mi North 4.6 mph - N/A   Clear
11:53 PM 77.0 °F - 39.0 °F 25% 29.88 in 10.0 mi North - - N/A   Clear